This is the latest recevied weather packets stored in our database for station/object N9WHM. If no packets are shown the sender has not sent any weather packets the latest 1 day(s).
| Time | Temp. | Humidity | Pressure | Rain* | Wind** | Luminosity | Snow |
|---|---|---|---|---|---|---|---|
| 1778017780 | 13.33° C | 33% | 1012.3 hPa | 0 mm | 3.58 m/s, 340° | 271 W/m² | - |
| 1778017478 | 12.78° C | 32% | 1012.6 hPa | 0 mm | 4.47 m/s, 353° | 237 W/m² | - |
| 1778017175 | 13.33° C | 33% | 1012.6 hPa | 0 mm | 4.47 m/s, 288° | 250 W/m² | - |
| 1778016873 | 12.78° C | 33% | 1012.5 hPa | 0 mm | 3.58 m/s, 21° | 299 W/m² | - |
| 1778016569 | 13.33° C | 33% | 1012.7 hPa | 0 mm | 4.47 m/s, 324° | 291 W/m² | - |
| 1778016266 | 12.78° C | 34% | 1012.6 hPa | 0 mm | 3.13 m/s, 31° | 284 W/m² | - |
| 1778015962 | 13.33° C | 33% | 1012.7 hPa | 0 mm | 4.02 m/s, 338° | 269 W/m² | - |
| 1778015660 | 12.78° C | 33% | 1012.5 hPa | 0 mm | 4.47 m/s, 292° | 322 W/m² | - |
| 1778015356 | 12.78° C | 34% | 1013 hPa | 0 mm | 1.79 m/s, 19° | 312 W/m² | - |
| 1778015063 | 12.78° C | 33% | 1012.8 hPa | 0 mm | 5.81 m/s, 7° | 355 W/m² | - |
| 1778014750 | 12.78° C | 35% | 1012.8 hPa | 0 mm | 3.13 m/s, 324° | 307 W/m² | - |
| 1778014449 | 12.78° C | 34% | 1012.7 hPa | 0 mm | 4.92 m/s, 350° | 317 W/m² | - |
| 1778014145 | 13.33° C | 34% | 1012.9 hPa | 0 mm | 4.02 m/s, 279° | 298 W/m² | - |
| 1778013843 | 13.33° C | 32% | 1012.7 hPa | 0 mm | 3.13 m/s, 317° | 379 W/m² | - |
| 1778013540 | 12.78° C | 33% | 1012.8 hPa | 0 mm | 4.92 m/s, 308° | 332 W/m² | - |
| 1778013236 | 13.33° C | 34% | 1012.7 hPa | 0 mm | 3.13 m/s, 50° | 284 W/m² | - |
| 1778012933 | 12.78° C | 34% | 1012.6 hPa | 0 mm | 2.68 m/s, 300° | 410 W/m² | - |
| 1778012629 | 12.78° C | 34% | 1012.9 hPa | 0 mm | 4.47 m/s, 340° | 222 W/m² | - |
| 1778012326 | 13.33° C | 34% | 1012.9 hPa | 0 mm | 3.13 m/s, 298° | 277 W/m² | - |
| 1778012023 | 13.89° C | 33% | 1012.8 hPa | 0 mm | 3.58 m/s, 341° | 341 W/m² | - |
| 1778011721 | 13.33° C | 33% | 1013 hPa | 0 mm | 4.02 m/s, 341° | 578 W/m² | - |
| 1778011418 | 13.89° C | 34% | 1013 hPa | 0 mm | 4.47 m/s, 317° | 658 W/m² | - |
| 1778011113 | 13.89° C | 33% | 1013 hPa | 0 mm | 3.13 m/s, 326° | 519 W/m² | - |
| 1778010811 | 13.89° C | 32% | 1013 hPa | 0 mm | 3.13 m/s, 1° | 525 W/m² | - |
| 1778010508 | 13.89° C | 33% | 1013 hPa | 0 mm | 4.02 m/s, 318° | 749 W/m² | - |
* Rain latest hour (hover to see other rain measurements)
** Current wind speed in m/s (hover to see current wind gust speed)